sat.trackr.live / text

‹ back to catalog

STARLINK-35660

NORAD 67003 · 2025-293A

PAYLOAD ACTIVE UNKNOWN

§ Identity

Operator
Country
US
Launch date
2025-12-10
Launch site
AFWTR
Launch vehicle
Mass (kg)
RCS (m²)

Purposes: comms

External: N2YO · Heavens-Above · Gunter

§ Orbital elements

Epoch: 2026-09-20T13:36:56.232864Z

Period
96.11 min
Inclination
70.0031°
Eccentricity
0.0003270
Mean motion
14.98327006 rev/d
Perigee alt
569.8 km
Apogee alt
574.3 km
Semi-major
6,950.2 km
B*
-1.3526e-4
RAAN
323.3051°
Arg perigee
268.9445°
Mean anomaly
91.1340°
Rev number
4,407

§ Raw data

STARLINK-356601 67003U 25293A   26263.56731751 -.00001706  00000+0 -13526-3 0  99962 67003  70.0031 323.3051 0003270 268.9445  91.1340 14.98327006 44079

JSON: /api/v1/satellites/67003 · /tle

For live sub-satellite position, see the globe view (requires WebGL).

§ Visibility from observer

Set your observer location to see the next 7 days of passes ≥ 10°. The values pass through the URL so the page stays shareable.

No JS? Fill the form by hand. The geolocation button needs JavaScript.